Change the Weather History Date:

Friday, March 8, 2013

  Actual Average Record
Temperature  
Mean Temperature 37 °F 34 °F  
Max Temperature 52 °F 47 °F 66 °F (2004)
Min Temperature 22 °F 22 °F 8 °F (2003)
Degree Days  
Heating Degree Days 28 31  
Month to date heating degree days 273 256  
Since 1 July heating degree days 5242 5273  
Cooling Degree Days 0 0  
Month to date cooling degree days 0 0  
Year to date cooling degree days 0 0  
Moisture  
Dew Point 32 °F    
Average Humidity 75    
Maximum Humidity 96    
Minimum Humidity 54    
Precipitation  
Precipitation T in 0.02 in 0.93 in (1928)
Month to date precipitation T 0.15  
Year to date precipitation 1.62 0.96  
Sea Level Pressure  
Sea Level Pressure 30.00 in    
Wind  
Wind Speed 6 mph (ESE)    
Max Wind Speed 20 mph    
Max Gust Speed 24 mph    
Visibility 8 miles    
Events Rain    
T = Trace of Precipitation, MM = Missing Value Source: NWS Daily Summary

Daily Weather History Graph

Daily Weather History Graph

Search for Another Location

Airport or City:

Trip Planner

Search our weather history database for the weather conditions in past years. The results will help you decide how hot, cold, wet, or windy it might be!

Date:

Astronomy

Mar. 08, 2013 Rise Set
Actual Time 6:58 AM CST 6:34 PM CST
Civil Twilight 6:31 AM CST 7:02 PM CST
Nautical Twilight 5:59 AM CST 7:34 PM CST
Astronomical Twilight 5:26 AM CST 8:07 PM CST
Moon 4:46 AM CST (3/8) 3:29 PM CST (3/8)
Length of Visible Light 12h 31m
Length of Day
11h 36m
Waning Crescent, 11% of the Moon is Illuminated
Mar 8
Waning Crescent
Mar 11
New
Mar 19
First Quarter
Mar 27
Full
Apr 2
Last Quarter

Hourly Weather History & Observations

Time (CST) Temp. Windchill Dew Point Humidity Pressure Visibility Wind Dir Wind Speed Gust Speed Precip Events Conditions
12:53 AM 25.0 °F - 21.9 °F 88% 30.14 in 9.0 mi Calm Calm - N/A   Clear
1:53 AM 25.0 °F - 21.9 °F 88% 30.14 in 8.0 mi Calm Calm - N/A   Clear
2:53 AM 28.9 °F - 25.0 °F 85% 30.13 in 9.0 mi Calm Calm - N/A   Clear
3:53 AM 27.0 °F - 24.1 °F 89% 30.11 in 8.0 mi Calm Calm - N/A   Clear
4:53 AM 23.0 °F - 21.9 °F 96% 30.11 in 6.0 mi Calm Calm - N/A   Clear
5:53 AM 23.0 °F - 21.0 °F 92% 30.11 in 5.0 mi Calm Calm - N/A   Clear
6:53 AM 23.0 °F - 21.0 °F 92% 30.13 in 5.0 mi Calm Calm - N/A   Clear
7:53 AM 28.0 °F 21.7 °F 25.0 °F 88% 30.10 in 4.0 mi NE 5.8 mph - N/A   Clear
8:53 AM 30.0 °F 25.2 °F 27.0 °F 88% 30.14 in 5.0 mi West 4.6 mph - N/A   Clear
9:53 AM 33.1 °F 30.0 °F 27.0 °F 78% 30.11 in 6.0 mi ENE 3.5 mph - N/A   Haze
10:53 AM 35.1 °F 28.6 °F 28.0 °F 76% 30.10 in 7.0 mi SE 8.1 mph 19.6 mph 0.00 in Rain Light Rain
11:53 AM 41.0 °F 34.3 °F 28.9 °F 62% 30.05 in 9.0 mi East 11.5 mph - 0.00 in   Clear
12:53 PM 45.0 °F 38.9 °F 30.0 °F 56% 30.04 in 9.0 mi SE 12.7 mph - N/A   Clear
1:53 PM 48.0 °F - 32.0 °F 54% 29.99 in 9.0 mi SE 10.4 mph - N/A   Clear
2:53 PM 48.9 °F - 34.0 °F 56% 29.94 in 9.0 mi ESE 11.5 mph - N/A   Clear
3:53 PM 51.1 °F - 35.1 °F 54% 29.92 in 10.0 mi SE 11.5 mph 20.7 mph N/A   Clear
4:53 PM 50.0 °F - 35.1 °F 57% 29.92 in 7.0 mi SE 6.9 mph - N/A   Mostly Cloudy
5:53 PM 48.9 °F - 36.0 °F 61% 29.90 in 6.0 mi East 5.8 mph - N/A   Haze
6:53 PM 48.9 °F - 37.9 °F 66% 29.88 in 8.0 mi East 5.8 mph - N/A   Overcast
7:53 PM 48.9 °F - 37.9 °F 66% 29.87 in 10.0 mi East 5.8 mph - N/A   Overcast
8:53 PM 51.1 °F - 41.0 °F 68% 29.86 in 10.0 mi SE 8.1 mph - N/A   Overcast
9:10 PM 51.8 °F - 42.8 °F 71% 29.82 in 10.0 mi SE 8.1 mph - N/A   Overcast
9:53 PM 50.0 °F - 42.1 °F 74% 29.84 in 10.0 mi ESE 11.5 mph - N/A   Overcast
10:53 PM 48.0 °F - 46.0 °F 93% 29.83 in 3.0 mi SE 11.5 mph - N/A   Overcast
11:53 PM 48.0 °F - 45.0 °F 89% 29.79 in 7.0 mi ESE 9.2 mph - 0.00 in   Overcast